Location: Fredericksburg
(30.2750°N, 98.8720°W)
Time: 00:29:50
(UTC-05:00)

Amateur Radio Satellites - All Passes

Search period start: 15 April 2014 23:59
Search period end: 16 April 2014 23:59
Location: Fredericksburg, 30.2750°N, 98.8720°W

Satellite Date Start Highest point End Downlink Frequencies (MHz)
Time Altitude Azimuth
FUNcube-1 16 Apr 00:20:13 00:23:33 22° 263° (W) 00:26:52 145.950 - 145.970 MHz USB
ISS 16 Apr 00:29:32 00:32:28 28° 40° (NE) 00:35:25 145.800 FM
Sapphire 16 Apr 01:19:45 01:24:27 31° 108° (ESE) 01:29:11 437.095 MHz 1200 baud AX-25 AFSK
SO-50 16 Apr 01:56:26 02:00:10 23° 55° (NE) 02:03:55 436.795 FM
Oscar 19 16 Apr 01:57:31 01:59:32 12° 93° (E) 02:01:33 437.125 CW, 437.150 USB
Oscar 16 16 Apr 02:04:01 02:07:12 16° 95° (E) 02:10:23 437.025 USB, Beacon 2401.1428
PCSat 16 Apr 02:04:11 02:09:35 86° 293° (WNW) 02:15:01 145.825 MHz
ISS 16 Apr 02:06:41 02:09:03 18° 233° (SW) 02:11:25 145.800 FM
OPAL 16 Apr 02:22:37 02:25:29 16° 65° (ENE) 02:28:22 ?
Uribyol 2 16 Apr 02:32:15 02:35:13 15° 95° (E) 02:38:11 436.500 FM
Sapphire 16 Apr 03:03:17 03:07:48 27° 302° (WNW) 03:12:21 437.095 MHz 1200 baud AX-25 AFSK
AO-27 16 Apr 03:08:52 03:13:38 37° 99° (E) 03:18:24 436.795 MHz FM
ITAMSAT 1 16 Apr 03:20:26 03:25:26 49° 100° (E) 03:30:24 435.822 SSB
TMSAT-1 16 Apr 03:33:00 03:34:22 11° 93° (E) 03:35:45 436.925 FM
Oscar 19 16 Apr 03:34:02 03:39:08 58° 286° (WNW) 03:44:12 437.125 CW, 437.150 USB
SO-50 16 Apr 03:36:37 03:40:41 30° 248° (WSW) 03:44:47 436.795 FM
Oscar 16 16 Apr 03:41:46 03:46:40 44° 287° (WNW) 03:51:34 437.025 USB, Beacon 2401.1428
OPAL 16 Apr 03:59:09 04:03:55 47° 258° (WSW) 04:08:46 ?
KITSAT 1 16 Apr 04:03:44 04:11:48 76° 113° (ESE) 04:19:55 435.175 FM
AO-Echo 16 Apr 04:06:42 04:11:26 64° 285° (WNW) 04:16:04 ?
Uribyol 2 16 Apr 04:09:55 04:14:50 46° 287° (WNW) 04:19:45 436.500 FM
Gurwin Techsat 1B 16 Apr 04:18:43 04:23:55 55° 101° (E) 04:29:06 435.225 FM
Uosat F 16 Apr 04:24:09 04:26:06 12° 94° (E) 04:28:03 435.120 FM
JAS-1B 16 Apr 04:33:31 04:37:47 22° 97° (E) 04:42:13 435.800 - 435.900 CW/SSB
UOSAT-12 16 Apr 04:40:49 04:45:29 58° 61° (ENE) 04:50:03 437.025 FM, 437.400 FM
AO-27 16 Apr 04:49:11 04:52:50 20° 292° (WNW) 04:56:29 436.795 MHz FM
ITAMSAT 1 16 Apr 05:01:32 05:04:27 15° 293° (WNW) 05:07:22 435.822 SSB
TMSAT-1 16 Apr 05:09:23 05:14:36 64° 285° (WNW) 05:19:49 436.925 FM
AO-40 16 Apr 05:43:39 11:40:46 48° 180° (S) 16:36:18 Beacon 2401.320
Uosat F 16 Apr 06:00:15 06:05:07 54° 286° (WNW) 06:09:57 435.120 FM
Gurwin Techsat 1B 16 Apr 06:00:39 06:03:21 14° 294° (WNW) 06:06:04 435.225 FM
KITSAT 1 16 Apr 06:02:08 06:07:55 21° 310° (NW) 06:13:45 435.175 FM
AO-7 16 Apr 06:03:01 06:11:20 74° 105° (ESE) 06:19:38 29.400 - 29.500 MHz
JAS-1B 16 Apr 06:23:27 06:28:31 34° 289° (WNW) 06:33:45 435.800 - 435.900 CW/SSB
UOSAT-12 16 Apr 06:23:59 06:25:04 11° 254° (WSW) 06:26:08 437.025 FM, 437.400 FM
STRAND 1 16 Apr 06:32:33 06:35:57 18° 68° (ENE) 06:39:21 ?
RS-15 16 Apr 06:50:54 07:00:40 34° 106° (ESE) 07:10:04 29.354 - 29.394 USB, Beacon 29.352 USB
AO-7 16 Apr 07:57:39 08:03:15 20° 301° (WNW) 08:08:52 29.400 - 29.500 MHz
Hamsat 16 Apr 07:58:34 08:02:53 68° 283° (WNW) 08:07:12 145.90 MHz
STRAND 1 16 Apr 08:09:59 08:14:47 40° 261° (W) 08:19:35 ?
JAS-2 16 Apr 08:31:58 08:37:21 65° 102° (ESE) 08:43:18 435.800 - 435.900 CW/SSB, 435.910 FM
MaSat-1 16 Apr 08:35:31 08:38:08 24° 67° (ENE) 08:41:07 437.345 MHz
SO-67 16 Apr 08:40:29 08:43:57 64° 100° (E) 08:47:24 435.3500 MHz FM
RS-15 16 Apr 09:01:17 09:12:25 56° 302° (WNW) 09:23:12 29.354 - 29.394 USB, Beacon 29.352 USB
Oscar 10/S400 16 Apr 10:06:43 03:47:26 45° 141° (SE) 12:15:20 145.825 - 145.975 CW/USB, Beacon 145.810 USB
MaSat-1 16 Apr 10:15:21 10:16:28 11° 252° (WSW) 10:17:38 437.345 MHz
JAS-2 16 Apr 10:19:55 10:22:01 12° 293° (WNW) 10:24:11 435.800 - 435.900 CW/SSB, 435.910 FM
PANSAT 16 Apr 10:24:59 10:28:24 30° 162° (SSE) 10:31:48 not established
HO-68 16 Apr 10:32:39 10:39:44 62° 103° (ESE) 10:46:49 435.675 MHz FM
Oscar 11 16 Apr 10:58:26 11:02:35 43° 99° (E) 11:06:44 145.825 FM, Beacon 2401.500 USB
PCSat 16 Apr 10:58:46 11:03:03 23° 57° (ENE) 11:07:17 145.825 MHz
RS-15 16 Apr 11:23:03 11:27:48 13° 328° (NNW) 11:32:31 29.354 - 29.394 USB, Beacon 29.352 USB
Sapphire 16 Apr 11:55:57 12:01:21 74° 65° (ENE) 12:06:44 437.095 MHz 1200 baud AX-25 AFSK
PANSAT 16 Apr 12:04:35 12:08:24 62° 174° (S) 12:12:12 not established
KITSAT 1 16 Apr 12:06:01 12:10:02 14° 45° (NE) 12:14:01 435.175 FM
FUNcube-1 16 Apr 12:13:58 12:18:13 76° 283° (WNW) 12:22:33 145.950 - 145.970 MHz USB
HO-68 16 Apr 12:21:50 12:26:48 21° 297° (WNW) 12:31:48 435.675 MHz FM
Saudisat 1A 16 Apr 12:30:07 12:34:34 83° 298° (WNW) 12:39:03 436.775 MHz
Oscar 11 16 Apr 12:36:37 12:38:21 12° 292° (WNW) 12:40:04 145.825 FM, Beacon 2401.500 USB
PCSat 16 Apr 12:41:33 12:46:29 37° 251° (WSW) 12:51:24 145.825 MHz
Oscar 19 16 Apr 13:10:55 13:11:28 10° 64° (ENE) 13:12:01 437.125 CW, 437.150 USB
Oscar 16 16 Apr 13:16:31 13:19:00 14° 66° (ENE) 13:21:29 437.025 USB, Beacon 2401.1428
PANSAT 16 Apr 13:44:43 13:48:31 60° 187° (S) 13:52:19 not established
Uribyol 2 16 Apr 13:45:33 13:48:02 14° 66° (ENE) 13:50:32 436.500 FM
KITSAT 1 16 Apr 13:58:38 14:06:44 76° 64° (ENE) 14:14:46 435.175 FM
AO-27 16 Apr 14:21:36 14:26:11 32° 71° (ENE) 14:30:45 436.795 MHz FM
ITAMSAT 1 16 Apr 14:32:53 14:37:44 41° 73° (ENE) 14:42:35 435.822 SSB
Oscar 19 16 Apr 14:45:02 14:50:07 72° 258° (WSW) 14:55:16 437.125 CW, 437.150 USB
TMSAT-1 16 Apr 14:49:16 14:50:18 11° 64° (ENE) 14:51:19 436.925 FM
Oscar 16 16 Apr 14:52:50 14:57:49 54° 259° (W) 15:02:52 437.025 USB, Beacon 2401.1428
AO-Echo 16 Apr 15:13:06 15:18:25 87° 77° (ENE) 15:23:39 ?
JAS-1B 16 Apr 15:13:22 15:18:03 17° 66° (ENE) 15:22:20 435.800 - 435.900 CW/SSB
Uribyol 2 16 Apr 15:21:56 15:26:59 55° 259° (W) 15:32:03 436.500 FM
PANSAT 16 Apr 15:25:10 15:28:29 28° 199° (SSW) 15:31:49 not established
ISS 16 Apr 15:32:45 15:34:34 14° 126° (SE) 15:36:23 145.800 FM
Gurwin Techsat 1B 16 Apr 15:34:08 15:39:13 49° 74° (ENE) 15:44:19 435.225 FM
KITSAT 1 16 Apr 15:56:28 16:01:13 17° 258° (WSW) 16:05:57 435.175 FM
RS-15 16 Apr 15:58:45 16:07:03 24° 44° (NE) 16:15:25 29.354 - 29.394 USB, Beacon 29.352 USB
AO-27 16 Apr 16:01:38 16:05:38 23° 264° (W) 16:09:40 436.795 MHz FM
SO-50 16 Apr 16:06:13 16:09:56 26° 111° (ESE) 16:13:39 436.795 FM
ITAMSAT 1 16 Apr 16:13:58 16:17:19 17° 265° (W) 16:20:41 435.822 SSB
OPAL 16 Apr 16:14:25 16:19:39 77° 104° (ESE) 16:24:51 ?
TMSAT-1 16 Apr 16:24:15 16:29:32 73° 258° (WSW) 16:34:49 436.925 FM
AO-7 16 Apr 16:55:27 17:03:32 60° 69° (ENE) 17:11:36 29.400 - 29.500 MHz
JAS-1B 16 Apr 16:59:11 17:08:05 81° 256° (WSW) 17:15:32 435.800 - 435.900 CW/SSB
Uosat F 16 Apr 17:07:33 17:12:34 73° 258° (WSW) 17:17:36 435.120 FM
ISS 16 Apr 17:07:58 17:11:03 35° 318° (NW) 17:14:09 145.800 FM
Gurwin Techsat 1B 16 Apr 17:16:25 17:19:21 15° 266° (W) 17:22:19 435.225 FM
SO-50 16 Apr 17:46:48 17:50:23 23° 305° (NW) 17:54:01 436.795 FM
OPAL 16 Apr 17:57:03 17:57:49 10° 298° (WNW) 17:58:35 ?
RS-15 16 Apr 18:09:39 18:20:40 85° 245° (WSW) 18:32:05 29.354 - 29.394 USB, Beacon 29.352 USB
JAS-2 16 Apr 18:41:38 18:44:27 14° 67° (ENE) 18:47:09 435.800 - 435.900 CW/SSB, 435.910 FM
UOSAT-12 16 Apr 18:46:27 18:50:55 68° 115° (ESE) 18:55:29 437.025 FM, 437.400 FM
Hamsat 16 Apr 18:46:33 18:50:26 39° 74° (ENE) 18:54:21 145.90 MHz
AO-7 16 Apr 18:50:23 18:56:35 23° 263° (W) 19:02:50 29.400 - 29.500 MHz
JAS-1B 16 Apr 18:56:44 18:58:49 11° 266° (W) 19:00:50 435.800 - 435.900 CW/SSB
JAS-2 16 Apr 20:22:53 20:29:09 64° 258° (WSW) 20:34:44 435.800 - 435.900 CW/SSB, 435.910 FM
Hamsat 16 Apr 20:25:04 20:26:32 12° 267° (W) 20:28:01 145.90 MHz
STRAND 1 16 Apr 20:26:08 20:31:13 74° 284° (WNW) 20:36:17 ?
RS-15 16 Apr 20:26:13 20:31:30 15° 259° (W) 20:36:53 29.354 - 29.394 USB, Beacon 29.352 USB
UOSAT-12 16 Apr 20:30:10 20:31:31 11° 311° (NW) 20:32:52 437.025 FM, 437.400 FM
SO-67 16 Apr 20:41:47 20:44:58 34° 262° (W) 20:48:10 435.3500 MHz FM
HO-68 16 Apr 20:56:09 21:01:44 26° 65° (ENE) 21:07:19 435.675 MHz FM
Saudisat 1A 16 Apr 21:03:45 21:06:30 16° 53° (NE) 21:09:14 436.775 MHz
Oscar 11 16 Apr 21:49:10 21:51:58 17° 70° (ENE) 21:54:47 145.825 FM, Beacon 2401.500 USB
MaSat-1 16 Apr 22:33:34 22:36:54 59° 111° (ESE) 22:39:44 437.345 MHz
Saudisat 1A 16 Apr 22:42:09 22:46:14 39° 247° (WSW) 22:50:16 436.775 MHz
HO-68 16 Apr 22:42:10 22:48:59 49° 259° (W) 22:55:52 435.675 MHz FM
FUNcube-1 16 Apr 23:05:12 23:09:11 40° 75° (ENE) 23:13:06 145.950 - 145.970 MHz USB
Oscar 11 16 Apr 23:24:09 23:27:54 29° 262° (W) 23:31:40 145.825 FM, Beacon 2401.500 USB
ISS 16 Apr 23:41:52 23:44:07 17° 36° (NE) 23:46:21 145.800 FM
